Terug naar catalogus

COSMOS 1375 DEB

ActiefLEO
NORAD 17107·DEBRIS·🇷🇺 Russia

Gelanceerd Jun 6, 1982 vanaf Plesetsk Cosmodrome

Loading…

Volgende Passages (komende 24 uur)

TLE

VersSource: Space-Track

Epoch: Sep 13, 2026, 22:46 UTC

1 17107U 82055AJ  26256.94915015  .00000969  00000-0  61692-3 0  9992
2 17107  65.8181 117.9732 0027226 329.4064 136.9672 14.08134348 79730

Volg COSMOS 1375 DEB in realtime met AllMySat

Download on the App Store